Probability
0 0 0 0 0 0 0 0 0 0 0 0 0 0 0 0 0 0 0 0 0 0 0 0 0 0 0 0 0 0 0 0 0 0 0 0 0 0 0 0 0 0 0 0
0 0 0 0 0 0 0 0 0 0 0 0 0 0 0 0 0 0 0 0 0 0 0 0 0 0 0 0 0 0 0 0 0 0 0 0 0 0 0 0 0 0 0 0
0 0 0 0 0 0 0 0 0 0 0 0 0 0 0 0 0 0 0 0 0 0 0 0 0 0 0 0 0 0 0 0 0 0 0 0 0 0 0 0 0 0 0 0
0 0 0 0 0 0 0 0 0 0 0 0 0 0 0 0 0 0 0 0 0 0 0 0 0 0 0 0 0 0 0 0 0 0 0 0 0 0 0 0 0 0 0 0
0 0 0 0 0 0 0 0 0 0 0 0 0 0 0 0 0 0 0 0 0 0 0 0 0 0 0 0 0 0 0 0 0 0 0 0 0 0 0 0 0 0 0 0
0 0 0 0 0 0 0 0 0 0 0 0 0 0 0 0 0 0 0 0 0 0 0 0 0 0 0 0 0 0 0 0 0 0 0 0 0 0 0 0 0 0 0 0
0 0 0 0 0 0 0 0 0 0 0 0 0 0 0 0 0 0 0 0 0 0 0 0 0 0 0 0 0 0 0 0 0 0 0 0 0 0 0 0 0 0 0 0
0 0 0 0 0 0 0 0 0 0 0 0 0 0 0 0 0 0 0 0 0 0 0 0 0 0 0 0 0 0 0 0 0 0 0 0 0 0 0 0 0 0 0 0
0 0 0 0 0 0 0 0 0 0 0 0 0 0 0 0 0 0 0 0 0 0 0 0 0 0 0 0 0 0 0 0 0 0 0 0 0 0 0 0 0 0 0 0
0 0 0 0 0 0 0 0 0 0 0 0 0 0 0 0 0 0 0 0 0 0 0 0 0 0 0 0 0 0 0 0 0 0 0 0 0 0 0 0 0 0 0 0
0 0 0 0 0 0 0 0 0 0 0 0 0 0 0 0 0 0 0 0 0 0 0 0 0 0 0 0 0 0 0 0 0 0 0 0 0 0 0 0 0 0 0 0
0 0 0 0 0 0 0 0 0 0 0 0 0 0 0 0 0 0 0 0 0 0 0 0 0 0 0 0 0 0 0 0 0 0 0 0 0 0 0 0 0 0 0 0
0 0 0 0 0 0 0 0 0 0 0 0 0 0 0 0 0 0 0 0 0 0 0 0 0 0 0 0 0 0 0 0 0 0 0 0 0 0 0 0 0 0 0 0
0 0 0 0 0 0 0 0 0 0 0 0 0 0 0 0 0 0 0 0 0 0 0 0 0 0 0 0 0 0 0 0 0 0 0 0 0 0 0 0 0 0 0 0
0 0 0 0 0 0 0 0 0 0 0 0 0 0 0 0 0 0 0 0 0 0 0 0 0 0 0 0 0 0 0 0 0 0 0 0 0 0 0 0 0 0 0 0
0 0 0 0 0 0 0 0 0 0 0 0 0 0 0 0 0 0 0 0 0 0 0 0 0 0 0 0 0 0 0 0 0 0 0 0 0 0 0 0 0 0 0 0
0 0 0 0 0 0 0 0 0 0 0 0 0 0 0 0 0 0 0 0 0 0 0 0 0 0 0 0 0 0 0 0 0 0 0 0 0 0 0 0 0 0 0 0
0 0 0 0 0 0 0 0 0 0 0 0 0 0 0 0 0 0 0 0 0 0 0 0 0 0 0 0 0 0 0 0 0 0 0 0 0 0 0 0 0 0 0 0
0 0 0 0 0 0 0 0 0 0 0 0 0 0 0 0 0 0 0 0 0 0 0 0 0 0 0 0 0 0 0 0 0 0 0 0 0 0 0 0 0 0 0 0
0 0 0 0 0 0 0 0 0 0 0 0 0 0 0 0 0 0 0 0 0 0 0 0 0 0 0 0 0 0 0 0 0 0 0 0 0 0 0 0 0 0 0 0
0 0 0 0 0 0 0 0 0 0 0 0 0 0 0 0 0 0 0 0 0 0 0 0 0 0 0 0 0 0 0 0 0 0 0 0 0 0 0 0 0 0 0 0
0 0 0 0 0 0 0 0 0 0 0 0 0 0 0 0 0 0 0 0 0 0 0 0 0 0 0 0 0 0 0 0 0 0 0 0 0 0 0 0 0 0 0 0
0 0 0 0 0 0 0 0 0 0 0 0 0 0 0 0 0 0 0 0 0 0 0 0 0 0 0 0 0 0 0 0 0 0 0 0 0 0 0 0 0 0 0 0
0 0 0 0 0 0 0 0 0 0 0 0 0 0 0 0 0 0 0 0 0 0 0 0 0 0 0 0 0 0 0 0 0 0 0 0 0 0 0 0 0 0 0 0
0 0 0 0 0 0 0 0 0 0 0 0 0 0 0 0 0 0 0 0 0 0 0 0 0 0 0 0 0 0 0 0 0 0 0 0 0 0 0 0 0 0 0 0
0 0 0 0 0 0 0 0 0 0 0 0 0 0 0 0 0 0 0 0 0 0 0 0 0 0 0 0 0 0 0 0 0 0 0 0 0 0 0 0 0 0 0 0
0 0 0 0 0 0 0 0 0 0 0 0 0 0 0 0 0 0 0 0 0 0 0 0 0 0 0 0 0 0 0 0 0 0 0 0 0 0 0 0 0 0 0 0
Wind_Speed
9 9 8 10 13 13 13 12 12 13 13 11 8 8 6 5 4 4 5 6 7 7 6 6 6 6 7 7 7 8 9 10 10 9 9 9 9 9 9 9 9 9 9 8
8 8 9 11 14 18 19 18 16 13 16 11 7 5 5 6 6 7 8 8 8 7 7 8 8 8 8 8 8 9 10 9 8 8 9 9 9 9 9 9 8 8 8 8
7 4 4 12 17 20 19 19 19 22 18 6 8 11 11 9 8 9 10 9 9 9 10 9 9 9 10 9 8 9 9 8 9 9 9 9 9 10 9 9 8 8 7 8
4 3 12 11 8 13 18 19 18 15 10 11 12 11 9 9 10 10 9 8 8 8 7 6 7 7 8 8 9 9 9 9 9 9 9 9 9 9 9 7 8 7 7 7
4 7 9 9 6 12 14 18 16 17 13 10 6 4 8 9 10 11 11 9 8 7 7 7 8 9 10 9 9 9 10 10 10 10 10 10 10 9 7 7 6 6 6 7
5 6 10 9 4 5 7 13 10 13 14 9 7 9 13 8 8 9 7 6 6 6 6 7 8 10 11 10 10 11 10 10 9 10 10 10 9 8 6 6 6 6 5 5
9 7 10 6 2 6 9 11 5 10 12 11 14 15 8 6 8 9 8 7 7 7 7 8 9 11 11 10 11 9 8 9 9 8 9 9 8 6 7 7 7 6 5 4
8 8 12 2 4 8 7 5 4 7 10 11 12 11 6 7 9 8 8 7 8 7 6 6 9 11 11 10 8 9 10 10 9 8 8 8 9 7 7 8 7 6 5 3
9 10 6 4 7 8 4 4 5 5 7 8 10 10 9 8 8 8 9 9 8 8 8 6 8 11 12 9 10 11 11 10 9 8 7 8 9 9 7 6 6 5 5 4
7 10 9 10 9 9 7 7 7 7 6 6 8 9 9 7 7 7 8 8 8 9 9 7 7 8 9 11 11 12 12 10 9 9 8 7 6 6 6 6 6 5 5 4
10 10 9 10 9 9 10 10 9 7 6 7 7 8 8 8 8 7 7 7 8 10 11 9 9 9 10 12 13 13 12 10 9 8 8 7 5 4 5 4 6 7 5 5
12 9 8 12 12 11 11 12 10 8 9 7 7 7 6 7 6 7 8 8 9 9 10 10 10 10 10 11 13 14 12 10 8 7 7 7 7 6 6 6 7 7 7 6
15 13 13 15 14 13 13 13 12 10 9 8 6 6 6 5 5 6 8 10 11 11 11 11 11 11 10 11 12 13 12 10 8 8 8 7 7 7 6 5 7 7 7 7
13 12 15 15 14 13 12 11 9 8 7 5 4 4 4 5 6 8 9 9 10 11 11 11 12 10 9 10 12 12 11 11 10 8 7 7 6 6 6 6 4 2 3 5
15 14 15 13 12 10 9 6 6 6 4 2 3 5 7 8 8 8 8 10 12 12 11 12 12 10 9 11 12 12 10 8 8 7 7 6 6 6 5 5 5 3 2 2
11 10 11 11 11 10 8 7 7 6 4 3 4 4 6 7 8 9 9 11 13 13 11 12 11 10 10 12 12 10 8 13 11 8 7 7 6 6 5 5 4 3 3 2
10 11 10 10 10 9 8 7 7 6 4 4 5 7 9 11 10 10 8 7 9 9 9 11 11 10 10 11 11 9 9 10 13 9 6 6 6 5 5 5 4 3 2 2
13 14 12 11 11 10 8 6 5 5 5 5 8 9 10 11 12 11 10 11 12 10 8 9 11 11 10 10 10 9 8 8 7 7 6 6 5 5 5 4 4 3 2 1
11 12 11 11 10 9 7 6 5 4 5 8 9 9 8 9 10 12 12 12 13 11 7 9 16 12 11 11 11 8 9 9 7 6 6 8 6 4 4 4 3 3 2 2
9 8 8 7 6 6 5 4 5 5 6 9 10 10 10 9 10 12 12 9 5 7 10 12 12 10 10 11 12 8 9 9 8 7 6 5 5 4 4 3 3 3 2 2
6 4 3 3 3 3 4 6 7 8 8 9 10 11 11 10 10 10 11 9 6 9 12 15 10 9 8 10 12 8 8 8 7 6 6 5 5 4 3 3 3 2 2 2
4 2 2 3 4 4 4 5 8 10 10 9 10 11 13 12 11 9 8 7 9 13 10 8 8 11 13 13 8 8 7 7 6 5 5 5 4 4 3 3 2 2 2 2
3 1 2 4 6 7 7 7 8 9 10 10 11 11 12 10 8 10 9 6 8 13 10 8 13 18 17 10 7 7 7 7 6 5 5 4 4 3 3 3 2 2 2 2
3 3 5 6 8 10 10 8 9 9 10 10 9 9 10 10 8 7 8 14 15 15 9 13 18 18 15 7 7 7 6 6 5 4 4 3 3 3 2 2 2 2 2 3
4 5 6 8 8 8 9 11 12 12 12 10 11 10 7 7 8 9 10 11 16 15 10 13 17 16 10 7 7 6 5 5 5 4 4 3 3 2 2 2 2 2 2 3
5 5 5 6 6 6 7 8 8 8 9 10 9 8 8 9 11 10 10 11 13 14 10 8 8 9 7 7 6 6 5 5 4 3 3 3 2 2 2 2 2 2 3 3
6 6 7 7 7 6 6 7 8 9 8 10 11 9 9 9 10 10 11 10 9 9 8 7 7 6 6 6 6 5 4 3 3 2 2 2 2 2 2 3 3 3 3 3
Wind_Direction
256 257 240 240 224 215 213 214 217 228 229 231 221 226 234 233 219 205 207 203 198 196 191 184 179 177 173 170 166 165 168 174 178 172 166 162 162 163 162 164 168 168 167 168
258 248 236 245 227 218 222 221 226 233 242 232 221 218 229 223 203 209 216 213 205 198 191 189 186 180 173 170 167 165 169 173 165 159 158 160 160 158 158 161 161 160 167 168
244 261 268 242 215 211 217 219 216 228 233 211 205 214 221 223 215 215 217 212 205 201 199 195 187 177 174 168 159 162 165 162 159 159 160 161 157 156 160 163 158 162 168 169
237 211 229 238 204 208 221 229 223 232 224 211 215 220 222 211 211 222 221 213 211 203 197 187 171 164 154 151 158 162 162 160 160 159 157 155 155 159 161 159 162 166 168 170
218 221 255 271 225 201 211 236 226 229 230 224 218 222 245 222 210 216 214 208 206 197 182 167 165 159 149 154 159 163 167 166 164 160 156 156 159 160 156 153 155 158 161 161
215 220 232 243 233 215 197 247 235 224 227 214 169 214 237 217 211 220 213 199 188 172 160 162 165 153 153 160 165 175 173 166 160 158 157 160 159 153 146 147 150 146 145 156
221 234 256 263 238 137 186 241 252 222 225 205 202 224 236 197 208 214 201 191 175 163 169 173 158 154 158 164 177 172 153 146 148 151 152 149 143 139 139 135 133 134 135 139
207 227 245 249 141 182 230 276 274 243 230 220 228 235 225 205 206 200 190 183 171 164 169 159 157 156 160 172 162 141 140 141 143 142 139 137 134 133 135 136 135 136 132 127
210 232 267 241 238 249 265 272 273 262 259 237 237 234 224 219 208 197 188 179 172 164 156 156 163 161 162 159 143 138 136 138 137 132 131 136 139 138 135 136 138 143 144 147
243 257 267 270 277 285 282 277 281 275 269 244 242 235 225 216 208 199 187 173 162 154 155 162 163 157 149 142 141 137 136 136 136 135 131 129 132 139 141 146 145 147 152 155
252 268 285 272 266 278 290 294 292 290 274 248 239 238 221 213 204 195 181 165 160 162 161 160 151 143 141 142 139 134 133 134 133 133 134 128 120 128 140 154 161 159 166 162
249 250 253 269 276 278 280 282 280 283 287 279 247 234 223 212 202 184 170 159 155 153 149 147 143 141 143 144 141 136 135 137 136 134 131 128 122 102 91 117 133 138 146 151
253 263 262 269 274 271 269 272 274 270 261 262 255 221 206 202 187 167 159 157 157 152 146 142 139 140 143 143 140 139 140 140 136 136 136 136 134 131 120 94 100 114 127 135
256 260 265 265 268 269 271 275 278 283 272 247 227 194 171 158 153 156 158 155 143 136 135 137 135 138 141 137 131 130 131 134 135 137 137 137 137 136 136 137 130 101 102 119
255 249 254 262 266 270 271 270 269 272 268 244 182 163 155 151 150 146 136 130 126 126 132 134 133 135 135 131 129 129 129 131 129 128 127 128 128 127 128 130 131 129 110 107
263 260 256 255 256 258 258 251 247 248 234 206 164 148 141 132 126 123 127 135 136 139 141 135 133 135 133 128 125 122 123 130 129 128 126 127 128 129 130 132 133 137 146 152
259 258 254 256 254 251 245 240 234 228 210 182 158 138 128 121 118 119 117 114 116 120 127 130 130 129 128 128 125 124 124 129 127 124 127 131 132 134 136 138 142 148 165 187
249 251 249 248 246 247 249 245 232 208 188 166 141 135 137 138 139 135 127 116 106 97 99 116 123 124 122 123 122 123 124 125 126 127 127 128 130 131 134 139 147 153 163 191
251 250 250 246 240 237 236 230 212 184 156 145 139 139 137 135 133 129 126 124 125 123 123 127 128 121 120 125 122 120 122 121 119 120 124 132 126 127 134 141 149 158 169 185
258 249 242 238 230 225 213 193 162 147 143 138 130 126 125 127 128 125 120 113 116 127 132 130 123 119 120 124 120 119 122 124 125 125 124 126 131 135 138 145 152 165 181 198
277 258 224 204 198 191 180 165 149 141 136 134 135 136 131 126 124 124 122 114 107 120 125 126 121 121 122 125 119 118 120 122 125 129 131 133 135 139 146 153 162 177 192 206
306 274 189 155 141 127 121 128 130 129 126 123 123 125 123 121 117 103 91 112 128 128 121 118 119 125 127 121 113 116 117 120 122 126 130 136 141 148 157 164 175 191 202 211
333 20 110 117 121 114 100 101 112 120 123 126 129 129 126 124 125 124 116 117 124 121 115 117 125 125 119 109 111 113 117 120 125 129 133 138 144 152 163 174 186 196 210 222
17 63 89 97 100 101 99 95 95 97 98 97 100 109 116 114 96 82 106 123 122 116 111 121 123 120 112 107 109 111 114 118 121 125 128 131 137 148 165 181 199 214 224 233
49 74 90 100 100 101 103 102 97 94 93 90 86 83 83 92 106 112 111 115 117 111 108 114 114 111 105 105 108 110 113 120 127 129 132 137 146 157 177 197 213 227 237 245
58 76 83 85 93 104 110 110 108 107 107 103 94 88 88 91 98 103 104 103 105 105 103 103 104 101 99 102 105 108 110 115 112 115 131 140 154 173 198 216 230 239 246 252
62 73 80 80 78 86 96 102 106 107 108 112 108 101 100 100 101 102 103 103 102 99 98 96 95 96 99 102 104 105 107 110 115 124 136 152 175 198 215 228 240 246 251 256